Location: Grand Rapids
(42.9630°N, 85.6680°W)
Time: 02:00:44
(UTC-04:00)

A-11 Canister half - Pass Details

Date: 31 May 2024
Orbit: 1524 x 1684 km, 47.3° (Epoch: 21 June)

Event Time Altitude Azimuth Distance (km) Brightness Sun altitude
Rises 23:30:28 0° 279° (W) 4,688 12.1 -18.4°
Reaches altitude 10° 23:33:31 10° 282° (WNW) 3,716 11.6 -18.7°
Maximum altitude 23:42:55 69° 5° (N) 1,660 9.3 -19.5°
Drops below altitude 10° 23:52:36 10° 89° (E) 3,829 10.8 -20.3°
Sets 23:55:48 0° 92° (E) 4,836 11.3 -20.6°
